Wetbulb
75.30 74.67 74.34 74.34 72.58 70.11 69.37 68.90 68.74 68.57 68.43 68.56 69.12 69.26 70.31 70.73 71.84 71.84 71.26 71.24 71.39 72.39
74.09 73.39 71.59 70.39 69.39 67.72 68.26 67.54 67.75 67.34 67.35 67.73 67.97 68.38 68.94 68.75 69.04 70.20 70.25 70.68 70.27 71.26
72.21 70.63 69.19 68.47 67.70 67.72 67.63 68.14 68.17 67.31 67.28 67.84 67.45 67.55 67.56 66.89 66.96 67.54 67.55 67.97 67.90 68.33
68.93 68.00 67.59 67.25 67.47 67.22 67.52 68.02 67.78 67.72 67.73 66.44 66.02 66.00 65.78 65.63 65.35 65.04 65.24 65.70 65.87 66.13
67.58 67.47 66.96 66.82 66.54 66.76 67.05 67.87 67.78 67.70 67.04 66.63 65.68 65.50 64.80 63.73 63.88 63.86 64.18 65.16 65.89 66.23
66.74 66.58 66.32 65.68 65.97 66.35 66.83 66.90 66.79 66.80 66.58 65.84 65.15 64.71 64.31 64.90 64.84 65.39 65.73 66.19 66.83 67.15
66.24 66.24 65.89 65.51 64.97 64.93 66.16 65.79 66.11 66.26 66.30 65.94 65.06 64.06 63.91 64.26 64.35 64.22 64.99 66.58 66.44 66.30
66.42 65.96 64.90 64.10 64.18 65.04 65.70 65.25 65.22 65.48 65.39 65.39 65.42 63.71 63.44 62.44 62.11 62.43 64.29 65.60 66.03 65.80
65.73 65.09 64.28 63.51 63.90 64.50 64.38 64.55 65.08 65.61 65.30 64.91 63.86 60.94 61.30 61.03 61.72 61.50 61.64 62.99 63.33 64.72
65.23 64.65 63.95 63.40 63.52 63.61 63.67 64.21 63.99 64.45 65.75 64.84 64.55 60.53 60.32 58.91 61.92 60.40 60.19 61.17 62.81 62.81
64.89 64.49 63.94 62.73 62.71 62.94 63.39 63.34 63.16 63.55 64.74 65.74 65.80 60.10 58.72 57.33 61.97 60.59 59.28 60.54 62.26 62.46
64.83 64.12 63.18 62.38 62.60 63.15 62.95 63.53 62.84 63.55 63.18 63.59 64.59 59.94 56.67 58.29 61.29 58.91 58.14 59.80 62.16 61.64
65.26 64.18 63.16 62.93 62.94 63.16 63.34 62.97 62.85 62.12 62.72 61.53 62.77 57.00 53.78 56.52 58.73 57.46 55.29 58.72 61.49 57.29
64.29 64.16 63.47 63.34 63.05 63.17 63.28 62.96 63.00 61.78 61.46 61.95 61.66 59.67 51.76 51.85 57.54 55.59 53.93 56.82 60.07 61.86
MSLP
1015.16 1015.41 1015.82 1016.14 1016.53 1016.89 1017.12 1017.25 1017.22 1017.34 1017.50 1017.25 1017.15 1017.02 1017.12 1017.15 1017.10 1017.07 1016.76 1016.54 1016.35 1016.09
1015.47 1015.73 1016.10 1016.58 1016.85 1017.03 1017.31 1017.36 1017.48 1017.48 1017.45 1017.24 1017.24 1017.21 1017.28 1017.24 1017.25 1017.14 1016.91 1016.65 1016.46 1016.14
1015.76 1016.13 1016.28 1016.54 1016.93 1017.30 1017.44 1017.44 1017.50 1017.62 1017.58 1017.49 1017.41 1017.35 1017.45 1017.48 1017.46 1017.17 1016.83 1016.59 1016.63 1016.43
1016.07 1016.49 1016.77 1016.97 1017.08 1017.25 1017.52 1017.45 1017.40 1017.54 1017.63 1017.62 1017.58 1017.56 1017.49 1017.46 1017.38 1017.18 1016.99 1016.83 1016.70 1016.56
1016.19 1016.62 1017.03 1017.35 1017.50 1017.65 1017.66 1017.68 1017.45 1017.50 1017.50 1017.56 1017.59 1017.55 1017.48 1017.42 1017.32 1017.08 1016.84 1016.76 1016.62 1016.33
1016.15 1016.64 1017.05 1017.54 1017.78 1017.81 1017.85 1017.97 1017.73 1017.69 1017.62 1017.47 1017.55 1017.50 1017.41 1017.37 1017.29 1017.09 1016.94 1016.81 1016.59 1016.34
1016.44 1016.64 1016.83 1017.14 1017.44 1017.45 1017.55 1017.65 1017.96 1018.01 1018.13 1018.04 1017.78 1017.55 1017.41 1017.35 1017.29 1017.21 1017.07 1016.97 1016.73 1016.59
1016.14 1016.78 1017.35 1017.40 1017.69 1017.79 1017.94 1017.91 1017.16 1016.59 1016.82 1017.33 1017.78 1017.76 1017.64 1017.57 1017.33 1017.31 1017.19 1017.05 1016.97 1016.81
1016.73 1017.21 1017.44 1017.65 1018.00 1017.89 1018.11 1017.98 1017.75 1017.57 1017.39 1016.96 1016.78 1017.48 1017.64 1017.57 1017.46 1017.34 1017.27 1017.09 1017.11 1016.90
1016.95 1017.42 1017.62 1017.64 1017.70 1017.68 1018.19 1017.97 1017.77 1017.80 1017.47 1017.29 1017.37 1017.49 1017.51 1017.38 1017.21 1017.20 1017.23 1017.16 1016.98 1016.73
1016.97 1017.34 1017.59 1017.50 1017.41 1017.84 1018.01 1017.69 1017.26 1017.31 1017.47 1017.55 1017.48 1017.72 1017.59 1017.45 1017.17 1017.14 1016.96 1017.02 1017.01 1016.81
1016.51 1016.84 1017.27 1017.41 1017.77 1018.13 1017.92 1017.67 1017.34 1017.29 1017.34 1017.30 1017.37 1017.72 1017.71 1017.48 1017.06 1016.94 1016.95 1016.78 1016.93 1017.01
1016.09 1016.53 1016.96 1017.25 1017.64 1017.49 1017.45 1017.13 1016.93 1017.14 1017.35 1017.37 1017.34 1017.61 1017.66 1017.72 1017.16 1016.84 1016.78 1016.70 1016.77 1017.17
1016.21 1016.61 1017.03 1017.46 1017.68 1017.40 1017.26 1017.21 1016.97 1017.06 1017.09 1017.18 1017.30 1017.57 1017.71 1017.76 1017.47 1017.04 1016.69 1016.37 1016.44 1016.76
Wind_Speed
4 3 4 5 5 4 4 3 4 4 3 4 4 3 1 2 2 2 3 4 3 1
6 6 7 7 5 5 4 4 4 4 4 4 4 3 1 1 1 2 2 3 3 3
7 7 8 7 6 5 4 5 5 5 4 5 5 5 3 1 2 2 2 2 4 3
7 7 6 5 5 4 3 3 5 4 5 5 5 4 3 3 3 4 4 3 4 4
8 6 5 5 5 4 3 2 2 4 6 5 4 4 5 5 4 4 4 4 4 4
8 7 6 4 3 3 3 2 3 4 4 4 4 4 5 5 5 5 5 5 5 5
7 6 6 5 4 4 5 4 3 3 2 2 3 4 5 5 5 5 4 4 4 5
7 5 4 4 2 3 2 1 5 8 7 5 2 3 4 4 5 5 5 4 4 4
5 5 4 3 2 2 2 3 2 1 3 5 4 7 5 3 4 5 5 4 4 6
6 5 4 3 2 2 2 1 1 3 3 4 5 5 5 3 4 5 5 5 5 5
6 5 5 4 3 4 4 2 1 2 1 3 2 2 3 2 2 3 4 5 5 6
7 5 4 3 4 4 4 2 2 2 4 4 4 2 2 4 2 4 5 4 4 6
6 4 4 5 6 4 3 1 0 2 4 3 5 4 3 4 3 4 5 3 3 1
6 5 4 5 4 3 3 2 1 2 2 3 2 4 4 2 4 4 4 4 2 1
Wind_Direction
148 145 120 110 109 105 109 101 82 77 42 45 46 51 76 219 270 292 286 301 310 281
129 127 109 106 108 107 108 119 100 100 105 91 89 67 74 61 337 308 324 329 341 311
128 126 120 110 91 80 94 97 103 103 104 102 89 79 72 76 46 334 325 298 314 307
119 108 99 101 92 75 52 75 102 105 109 98 84 64 45 8 358 335 328 322 302 295
123 114 105 90 88 72 59 42 81 118 120 106 80 44 17 355 349 339 343 346 321 314
130 131 116 100 79 77 89 64 87 129 126 102 63 39 27 19 11 6 354 347 338 342
144 142 145 139 151 158 151 138 107 76 43 55 75 61 45 45 29 7 359 2 23 23
147 134 152 145 156 171 179 168 161 162 163 159 180 53 61 49 43 21 6 3 353 31
136 168 173 133 165 151 197 179 184 189 220 182 157 122 97 38 39 28 7 349 337 331
165 177 173 156 167 136 232 236 41 348 8 151 146 140 109 99 53 12 5 346 330 322
163 178 188 187 183 217 235 210 84 209 289 273 198 178 105 130 45 15 9 343 334 341
179 184 198 216 233 241 243 243 341 315 283 274 281 186 88 292 333 6 352 348 325 337
167 183 220 226 223 209 220 222 219 358 337 319 272 139 93 318 333 338 334 324 314 135
174 198 218 225 231 233 245 286 254 305 340 359 355 148 115 22 316 333 321 320 317 333